User: anonymous   Login
Location: Unspecified
(0.0000°N, 0.0000°E)
Time: 06:23:43
(UTC+02:00)
Language:

PSLV R/B - Orbit

View from above orbital plane
View from above orbital plane
View from above satellite
View from above satellite

Ground track
Ground track

The orbit data is extracted from the following two-line orbital elements,

1 29713U 07001E   17295.56963016 +.00000366 +00000-0 +48790-4 0  9997
2 29713 097.7804 264.9877 0026177 039.8835 320.4297 14.85168672582865
Epoch (UTC): 22 October 2017 13:40:16
Eccentricity: 0.0026177
inclination: 97.7804°
perigee height: 595 km
apogee height: 631 km
right ascension of ascending node: 264.9877°
argument of perigee: 39.8835°
revolutions per day: 14.85168672
mean anomaly at epoch: 320.4297°
orbit number at epoch: 58286

The dashed part of the orbit path shows where the satellite is in the earth's shadow,  

DLR